Location: Plainartige
(45.6866°N, 1.7993°E)
Time: 01:41:05
(UTC+00:00)

NOAA 19 - Pass Details

Date: 25 June 2022
Orbit: 840 x 861 km, 99.1° (Epoch: 07 August)

Event Time Altitude Azimuth Distance (km) Brightness Sun altitude
Rises 20:28:16 0° 211° (SSW) 3,423 8.2 -6.5°
Reaches altitude 10° 20:31:33 10° 232° (SW) 2,489 7.8 -6.9°
Maximum altitude 20:34:58 17° 270° (W) 2,061 7.9 -7.3°
Drops below altitude 10° 20:38:24 10° 309° (NW) 2,493 9.4 -7.7°
Sets 20:41:44 0° 330° (NNW) 3,431 10.3 -8.1°
